EXM94 EGBJ-EGTK

Flight info

Callsign EXM94
Flight time N/A
Altitude 9000
Route BADIM DCT CONKO DCT OX
Aircraft DA42/L-SDFGRY/C

Departure

Time 2026-05-01 11:12
Airport Gloucestershire Airport (EGBJ)

Arrival

Time N/A
Airport London Oxford Airport (EGTK)
Time Latitude Longitude Altitude Speed Heading
2026-05-01 10:49 51.88927 -2.16354 88 ft 0 kts 352°
2026-05-01 11:07 51.88928 -2.16354 88 ft 2 kts 351°
2026-05-01 11:08 51.88984 -2.16373 88 ft 7 kts 352°
2026-05-01 11:08 51.89043 -2.16375 88 ft 9 kts 57°
2026-05-01 11:08 51.89193 -2.16190 92 ft 18 kts 36°
2026-05-01 11:09 51.89280 -2.16092 89 ft 13 kts 34°
2026-05-01 11:09 51.89362 -2.16000 89 ft 11 kts 36°
2026-05-01 11:09 51.89388 -2.15970 89 ft 0 kts 34°
2026-05-01 11:10 51.89431 -2.15936 89 ft 12 kts 355°
2026-05-01 11:11 51.89460 -2.15976 89 ft 3 kts 264°
2026-05-01 11:11 51.89460 -2.15977 89 ft 0 kts 264°
2026-05-01 11:11 51.89456 -2.16024 89 ft 25 kts 261°
2026-05-01 11:11 51.89416 -2.16611 97 ft 73 kts 264°
2026-05-01 11:12 51.89353 -2.17503 287 ft 83 kts 263°
2026-05-01 11:12 51.89291 -2.18479 525 ft 89 kts 264°
2026-05-01 11:12 51.89242 -2.19492 758 ft 92 kts 264°
2026-05-01 11:12 51.89202 -2.20536 1057 ft 93 kts 264°
2026-05-01 11:13 51.89175 -2.21560 1406 ft 93 kts 265°
2026-05-01 11:13 51.89114 -2.22607 1751 ft 93 kts 247°
2026-05-01 11:13 51.88704 -2.23364 2164 ft 90 kts 216°
2026-05-01 11:13 51.88177 -2.23950 2618 ft 91 kts 212°
2026-05-01 11:14 51.87638 -2.24561 2983 ft 97 kts 213°
2026-05-01 11:14 51.87105 -2.25176 3343 ft 97 kts 213°
2026-05-01 11:14 51.86559 -2.25812 3708 ft 95 kts 212°
2026-05-01 11:14 51.86013 -2.26438 3983 ft 98 kts 211°
2026-05-01 11:15 51.85452 -2.27074 4283 ft 99 kts 211°
2026-05-01 11:15 51.84884 -2.27713 4593 ft 100 kts 211°
2026-05-01 11:15 51.84318 -2.28350 4906 ft 98 kts 209°
2026-05-01 11:15 51.83757 -2.28972 5210 ft 98 kts 209°
2026-05-01 11:16 51.83188 -2.29626 5461 ft 100 kts 209°
2026-05-01 11:16 51.82624 -2.30282 5800 ft 99 kts 209°
2026-05-01 11:16 51.82069 -2.30942 6145 ft 100 kts 208°
2026-05-01 11:16 51.81520 -2.31598 6482 ft 97 kts 208°
2026-05-01 11:17 51.80965 -2.32245 6751 ft 100 kts 207°
2026-05-01 11:17 51.80398 -2.32883 7076 ft 98 kts 208°
2026-05-01 11:17 51.79841 -2.33523 7367 ft 99 kts 207°
2026-05-01 11:17 51.79275 -2.34176 7624 ft 101 kts 208°
2026-05-01 11:18 51.78699 -2.34815 7904 ft 100 kts 205°
2026-05-01 11:18 51.78127 -2.35470 8168 ft 103 kts 208°
2026-05-01 11:18 51.77549 -2.36154 8455 ft 103 kts 208°
2026-05-01 11:18 51.76972 -2.36838 8739 ft 103 kts 208°
2026-05-01 11:19 51.76394 -2.37548 9017 ft 105 kts 208°
2026-05-01 11:19 51.75777 -2.38277 9139 ft 118 kts 208°
2026-05-01 11:19 51.75088 -2.39092 9229 ft 129 kts 210°
2026-05-01 11:19 51.74332 -2.39990 9167 ft 143 kts 212°
2026-05-01 11:20 51.73554 -2.40962 9160 ft 143 kts 211°
2026-05-01 11:20 51.72757 -2.41911 9162 ft 142 kts 209°
2026-05-01 11:20 51.71954 -2.42841 9164 ft 142 kts 209°
2026-05-01 11:20 51.71150 -2.43762 9164 ft 142 kts 209°
2026-05-01 11:21 51.70349 -2.44678 9167 ft 141 kts 209°
2026-05-01 11:21 51.69547 -2.45596 9166 ft 141 kts 209°
2026-05-01 11:21 51.68748 -2.46510 9168 ft 141 kts 209°
2026-05-01 11:21 51.67951 -2.47421 9167 ft 141 kts 209°
2026-05-01 11:22 51.67155 -2.48330 9166 ft 141 kts 209°
2026-05-01 11:22 51.66353 -2.49247 9171 ft 142 kts 209°
2026-05-01 11:22 51.65457 -2.49774 9160 ft 138 kts 175°
2026-05-01 11:22 51.64620 -2.49071 9160 ft 143 kts 134°
2026-05-01 11:23 51.64275 -2.47529 9166 ft 152 kts 107°
2026-05-01 11:23 51.64170 -2.45824 9165 ft 153 kts 102°
2026-05-01 11:23 51.64084 -2.44122 9159 ft 152 kts 103°
2026-05-01 11:23 51.63977 -2.42436 9160 ft 152 kts 104°
2026-05-01 11:24 51.63866 -2.40748 9151 ft 150 kts 104°
2026-05-01 11:24 51.63756 -2.39080 9157 ft 150 kts 104°
2026-05-01 11:24 51.63541 -2.35763 9157 ft 149 kts 104°
2026-05-01 11:25 51.63433 -2.34103 9152 ft 149 kts 104°
2026-05-01 11:25 51.63219 -2.30787 9156 ft 150 kts 104°
2026-05-01 11:25 51.63108 -2.29130 9153 ft 149 kts 105°
2026-05-01 11:26 51.62984 -2.27483 9159 ft 148 kts 105°
2026-05-01 11:26 51.62722 -2.24160 9164 ft 152 kts 105°
2026-05-01 11:26 51.62587 -2.22470 9162 ft 153 kts 105°
2026-05-01 11:27 51.62453 -2.20776 9163 ft 153 kts 105°
2026-05-01 11:27 51.62320 -2.19086 9162 ft 152 kts 105°
2026-05-01 11:27 51.62188 -2.17423 9160 ft 151 kts 105°
2026-05-01 11:27 51.62055 -2.15749 9159 ft 150 kts 105°
2026-05-01 11:28 51.61936 -2.14061 9158 ft 149 kts 104°
2026-05-01 11:28 51.61818 -2.12431 9158 ft 148 kts 105°
2026-05-01 11:28 51.61691 -2.10799 9161 ft 148 kts 105°
2026-05-01 11:29 51.61428 -2.07503 9162 ft 149 kts 105°
2026-05-01 11:29 51.61313 -2.05839 9159 ft 154 kts 96°
2026-05-01 11:29 51.62129 -2.02497 9166 ft 163 kts 71°
2026-05-01 11:30 51.62647 -2.00866 9166 ft 164 kts 71°
2026-05-01 11:30 51.63167 -1.99236 9168 ft 164 kts 71°
2026-05-01 11:30 51.63687 -1.97604 9166 ft 164 kts 71°
2026-05-01 11:30 51.64205 -1.95974 9167 ft 164 kts 71°
2026-05-01 11:31 51.64724 -1.94342 9164 ft 164 kts 71°
2026-05-01 11:31 51.65245 -1.92703 9017 ft 166 kts 71°
2026-05-01 11:31 51.65766 -1.91053 8808 ft 164 kts 71°
2026-05-01 11:31 51.66279 -1.89423 8602 ft 162 kts 71°
2026-05-01 11:32 51.66783 -1.87815 8400 ft 160 kts 72°
2026-05-01 11:32 51.67274 -1.86213 8195 ft 160 kts 72°
2026-05-01 11:32 51.67767 -1.84579 8167 ft 162 kts 72°
2026-05-01 11:32 51.68261 -1.82935 8167 ft 163 kts 72°
2026-05-01 11:33 51.68757 -1.81281 8162 ft 164 kts 72°
2026-05-01 11:33 51.69254 -1.79626 8162 ft 164 kts 72°
2026-05-01 11:33 51.69749 -1.77973 8162 ft 164 kts 72°
2026-05-01 11:33 51.70243 -1.76326 8159 ft 163 kts 72°
2026-05-01 11:34 51.70735 -1.74691 8160 ft 162 kts 72°
2026-05-01 11:34 51.71225 -1.73059 8160 ft 162 kts 72°
2026-05-01 11:34 51.71717 -1.71428 8160 ft 162 kts 72°
2026-05-01 11:34 51.72211 -1.69785 8078 ft 164 kts 72°
2026-05-01 11:35 51.72635 -1.68369 7910 ft 162 kts 72°
2026-05-01 11:35 51.73123 -1.66746 7706 ft 160 kts 72°
2026-05-01 11:35 51.73606 -1.65136 7503 ft 159 kts 72°
2026-05-01 11:35 51.74085 -1.63538 7313 ft 158 kts 72°
2026-05-01 11:36 51.74564 -1.61940 7118 ft 158 kts 72°
2026-05-01 11:36 51.75042 -1.60351 6926 ft 157 kts 72°
2026-05-01 11:36 51.75516 -1.58763 6729 ft 156 kts 72°
2026-05-01 11:36 51.75986 -1.57185 6538 ft 156 kts 72°
2026-05-01 11:37 51.76457 -1.55617 6331 ft 155 kts 72°
2026-05-01 11:37 51.76926 -1.54056 6124 ft 155 kts 72°
2026-05-01 11:37 51.77390 -1.52489 5923 ft 155 kts 72°
2026-05-01 11:37 51.77845 -1.50926 5720 ft 153 kts 72°
2026-05-01 11:38 51.78288 -1.49392 5522 ft 152 kts 72°
2026-05-01 11:38 51.78725 -1.47834 5319 ft 152 kts 73°
2026-05-01 11:38 51.79146 -1.46264 5134 ft 154 kts 73°
2026-05-01 11:38 51.79568 -1.44662 4923 ft 156 kts 73°
2026-05-01 11:39 51.79974 -1.43080 4713 ft 149 kts 73°
2026-05-01 11:39 51.80369 -1.41562 4505 ft 144 kts 72°
2026-05-01 11:39 51.80782 -1.40096 4304 ft 142 kts 70°
2026-05-01 11:39 51.81199 -1.38656 4108 ft 141 kts 70°
2026-05-01 11:40 51.81628 -1.37194 3993 ft 144 kts 69°
2026-05-01 11:40 51.82015 -1.35734 3993 ft 144 kts 70°
2026-05-01 11:40 51.82478 -1.34286 3989 ft 142 kts 66°
2026-05-01 11:40 51.82994 -1.32890 3938 ft 146 kts 62°
2026-05-01 11:41 51.83564 -1.31549 3965 ft 144 kts 56°
2026-05-01 11:41 51.84213 -1.30303 3934 ft 146 kts 54°
2026-05-01 11:41 51.84824 -1.29006 3945 ft 142 kts 71°
2026-05-01 11:41 51.84901 -1.27504 3965 ft 132 kts 114°
2026-05-01 11:42 51.84368 -1.26398 3968 ft 125 kts 154°
2026-05-01 11:42 51.83568 -1.25865 4004 ft 122 kts 165°
2026-05-01 11:42 51.82805 -1.25429 4140 ft 116 kts 161°
2026-05-01 11:42 51.82021 -1.24906 4028 ft 127 kts 161°
2026-05-01 11:43 51.81181 -1.24443 3981 ft 127 kts 166°
2026-05-01 11:43 51.80333 -1.24075 3941 ft 126 kts 168°
2026-05-01 11:43 51.79493 -1.23751 3973 ft 123 kts 169°
2026-05-01 11:44 51.77876 -1.23922 3990 ft 121 kts 220°
2026-05-01 11:44 51.77539 -1.25152 4001 ft 128 kts 262°
2026-05-01 11:44 51.77849 -1.26520 4000 ft 139 kts 307°
2026-05-01 11:44 51.78593 -1.27580 3923 ft 145 kts 317°
2026-05-01 11:45 51.79382 -1.28588 3966 ft 139 kts 318°
2026-05-01 11:45 51.80155 -1.29538 3973 ft 143 kts 320°
2026-05-01 11:45 51.80969 -1.30478 3963 ft 144 kts 323°
2026-05-01 11:45 51.81860 -1.31207 3976 ft 145 kts 335°
2026-05-01 11:46 51.82785 -1.31850 3959 ft 144 kts 333°
2026-05-01 11:46 51.83697 -1.32440 3983 ft 143 kts 349°
2026-05-01 11:46 51.84717 -1.32536 3968 ft 144 kts 359°
2026-05-01 11:46 51.85690 -1.32542 3846 ft 142 kts
2026-05-01 11:47 51.86677 -1.32554 3652 ft 142 kts
2026-05-01 11:47 51.87672 -1.32534 3460 ft 143 kts
2026-05-01 11:47 51.88673 -1.32497 3233 ft 144 kts
2026-05-01 11:47 51.89674 -1.32463 3026 ft 144 kts
2026-05-01 11:48 51.90668 -1.32389 2872 ft 142 kts
2026-05-01 11:48 51.91649 -1.32384 2698 ft 142 kts 359°
2026-05-01 11:48 51.92639 -1.32401 2472 ft 143 kts 358°
2026-05-01 11:48 51.93635 -1.32420 2250 ft 144 kts 357°
2026-05-01 11:49 51.94622 -1.32469 2089 ft 139 kts 355°
2026-05-01 11:49 51.95575 -1.32573 1911 ft 135 kts
2026-05-01 11:49 51.96379 -1.31949 1816 ft 130 kts 53°
2026-05-01 11:49 51.96659 -1.30622 1812 ft 126 kts 99°
2026-05-01 11:50 51.96486 -1.29756 1832 ft 119 kts 129°
2026-05-01 11:50 51.95860 -1.28922 1808 ft 119 kts 151°
2026-05-01 11:50 51.95105 -1.28515 1847 ft 114 kts 185°
2026-05-01 11:50 51.94324 -1.28736 1855 ft 115 kts 192°
2026-05-01 11:51 51.93278 -1.29096 1844 ft 117 kts 191°
2026-05-01 11:51 51.92735 -1.29277 1857 ft 118 kts 191°
2026-05-01 11:51 51.91997 -1.29511 1825 ft 97 kts 189°
2026-05-01 11:51 51.91348 -1.29677 1689 ft 92 kts 189°
2026-05-01 11:52 51.90709 -1.29849 1516 ft 92 kts 191°
2026-05-01 11:52 51.90090 -1.30058 1390 ft 90 kts 192°
2026-05-01 11:52 51.89484 -1.30235 1271 ft 88 kts 189°
2026-05-01 11:52 51.88885 -1.30412 1172 ft 89 kts 189°
2026-05-01 11:53 51.88258 -1.30610 1088 ft 94 kts 188°
2026-05-01 11:53 51.87627 -1.30816 910 ft 90 kts 189°
2026-05-01 11:53 51.87034 -1.30979 839 ft 88 kts 188°
2026-05-01 11:53 51.86410 -1.31176 737 ft 94 kts 189°
2026-05-01 11:54 51.85744 -1.31357 617 ft 99 kts 187°
2026-05-01 11:54 51.85100 -1.31544 827 ft 89 kts 191°
2026-05-01 11:54 51.84471 -1.31809 1136 ft 95 kts 192°
2026-05-01 11:54 51.83819 -1.32030 1461 ft 97 kts 189°
2026-05-01 11:55 51.83243 -1.32551 1849 ft 101 kts 234°
2026-05-01 11:55 51.83145 -1.33665 2187 ft 106 kts 285°
2026-05-01 11:55 51.83602 -1.34610 2530 ft 108 kts 314°
2026-05-01 11:55 51.84212 -1.35272 2856 ft 109 kts 328°
2026-05-01 11:56 51.84888 -1.35785 3086 ft 103 kts 331°
2026-05-01 11:56 51.85544 -1.36180 3125 ft 99 kts 332°
2026-05-01 11:56 51.86194 -1.36546 3143 ft 99 kts 331°
2026-05-01 11:56 51.86850 -1.36920 3288 ft 101 kts 330°
2026-05-01 11:57 51.87524 -1.37309 3415 ft 104 kts 330°
2026-05-01 11:57 51.88204 -1.37718 3560 ft 105 kts 332°
2026-05-01 11:57 51.88910 -1.38230 3786 ft 115 kts 331°
2026-05-01 11:57 51.89659 -1.38813 3968 ft 127 kts 329°
2026-05-01 11:58 51.90505 -1.39527 4000 ft 147 kts 329°
2026-05-01 11:58 51.91456 -1.40312 3997 ft 161 kts 330°
2026-05-01 11:58 51.93420 -1.42266 3994 ft 166 kts 309°
2026-05-01 11:59 51.94126 -1.43708 3985 ft 161 kts 302°
2026-05-01 11:59 51.94788 -1.45167 3992 ft 160 kts 301°
2026-05-01 11:59 51.95440 -1.46619 3999 ft 159 kts 301°
2026-05-01 12:00 51.96736 -1.49524 3986 ft 159 kts 301°
2026-05-01 12:00 51.97379 -1.50973 3985 ft 157 kts 301°
2026-05-01 12:00 51.98661 -1.53855 3988 ft 158 kts 301°
2026-05-01 12:01 51.99305 -1.55300 3990 ft 158 kts 301°
2026-05-01 12:01 51.99953 -1.56756 3993 ft 160 kts 301°
2026-05-01 12:01 52.00605 -1.58225 3987 ft 160 kts 301°
2026-05-01 12:01 52.01255 -1.59689 3987 ft 160 kts 301°
2026-05-01 12:02 52.01875 -1.61160 3981 ft 156 kts 291°
2026-05-01 12:02 52.02056 -1.62844 3981 ft 150 kts 267°
2026-05-01 12:02 52.02102 -1.64516 3985 ft 147 kts 269°
2026-05-01 12:02 52.02196 -1.66131 3982 ft 141 kts 270°
2026-05-01 12:03 52.02299 -1.67667 3977 ft 136 kts 270°
2026-05-01 12:03 52.02391 -1.69193 3947 ft 137 kts 270°
2026-05-01 12:03 52.02512 -1.70730 3937 ft 139 kts 284°
2026-05-01 12:03 52.03105 -1.71958 3979 ft 144 kts 324°
2026-05-01 12:04 52.04080 -1.72417 3955 ft 150 kts 350°
2026-05-01 12:04 52.04936 -1.72551 3987 ft 147 kts
2026-05-01 12:04 52.05976 -1.72397 3945 ft 148 kts
2026-05-01 12:04 52.06989 -1.72167 3975 ft 147 kts
2026-05-01 12:05 52.07965 -1.72554 3952 ft 145 kts 323°
2026-05-01 12:05 52.08400 -1.75257 3900 ft 126 kts 245°
2026-05-01 12:05 52.08124 -1.76542 3987 ft 115 kts 246°
2026-05-01 12:06 52.07755 -1.77796 3613 ft 146 kts 216°
2026-05-01 12:06 52.07087 -1.77759 4446 ft 88 kts 151°
2026-05-01 12:06 52.06494 -1.77112 4440 ft 108 kts 149°
2026-05-01 12:06 52.05921 -1.76796 4900 ft 94 kts 195°
2026-05-01 12:07 52.05278 -1.77793 3985 ft 142 kts 226°
2026-05-01 12:07 52.04707 -1.78885 3966 ft 124 kts 226°
2026-05-01 12:07 52.04480 -1.80125 4035 ft 144 kts 322°
2026-05-01 12:07 52.04574 -1.80075 3963 ft 119 kts 306°
2026-05-01 12:08 52.05219 -1.79345 3878 ft 135 kts 54°
2026-05-01 12:08 52.05817 -1.78166 3939 ft 135 kts 56°
2026-05-01 12:08 52.06390 -1.76941 3964 ft 137 kts 59°
2026-05-01 12:08 52.06942 -1.75663 3989 ft 138 kts 60°
2026-05-01 12:09 52.07431 -1.74447 4063 ft 120 kts 63°
2026-05-01 12:09 52.07869 -1.73373 4092 ft 113 kts 61°
2026-05-01 12:09 52.08321 -1.72295 4027 ft 113 kts 61°
2026-05-01 12:09 52.08788 -1.71291 3922 ft 117 kts 44°
2026-05-01 12:10 52.09537 -1.71004 3884 ft 114 kts 346°
2026-05-01 12:10 52.10271 -1.72732 3940 ft 90 kts 267°
2026-05-01 12:10 52.10337 -1.73599 3952 ft 70 kts 269°
2026-05-01 12:11 52.10466 -1.75631 4203 ft 113 kts 268°
2026-05-01 12:11 52.10547 -1.76979 4277 ft 124 kts 271°
2026-05-01 12:11 52.10652 -1.78392 4308 ft 126 kts 272°
2026-05-01 12:12 52.10783 -1.79726 4324 ft 115 kts 274°
2026-05-01 12:12 52.10932 -1.81003 4185 ft 115 kts 275°
2026-05-01 12:12 52.11065 -1.82282 4045 ft 114 kts 272°
2026-05-01 12:12 52.11099 -1.83484 3971 ft 92 kts 240°
2026-05-01 12:13 52.10706 -1.83937 3984 ft 69 kts 174°
2026-05-01 12:13 52.10388 -1.83370 3902 ft 90 kts 116°
2026-05-01 12:13 52.10198 -1.82398 4183 ft 88 kts 115°
2026-05-01 12:13 52.09986 -1.81254 4152 ft 122 kts 114°
2026-05-01 12:14 52.09714 -1.79868 4024 ft 135 kts 115°
2026-05-01 12:14 52.09408 -1.78415 3988 ft 134 kts 115°
2026-05-01 12:14 52.09106 -1.77006 3987 ft 130 kts 115°
2026-05-01 12:14 52.08810 -1.75630 3989 ft 128 kts 115°
2026-05-01 12:15 52.08491 -1.74282 3980 ft 125 kts 123°
2026-05-01 12:15 52.07858 -1.73467 3981 ft 116 kts 169°
2026-05-01 12:15 52.07075 -1.73661 3993 ft 116 kts 200°
2026-05-01 12:15 52.06355 -1.74271 3993 ft 118 kts 207°
2026-05-01 12:16 52.05634 -1.74943 3983 ft 120 kts 208°
2026-05-01 12:16 52.04917 -1.75628 3978 ft 118 kts 208°
2026-05-01 12:16 52.04216 -1.76303 3980 ft 117 kts 208°
2026-05-01 12:16 52.03517 -1.76980 3977 ft 116 kts 208°
2026-05-01 12:17 52.02828 -1.77660 3974 ft 116 kts 209°
2026-05-01 12:17 52.02140 -1.78356 3974 ft 117 kts 209°
2026-05-01 12:17 52.01446 -1.79058 3976 ft 118 kts 209°
2026-05-01 12:17 52.00749 -1.79767 3977 ft 118 kts 209°
2026-05-01 12:18 52.00057 -1.80478 3980 ft 118 kts 209°
2026-05-01 12:18 51.99369 -1.81183 3980 ft 117 kts 210°
2026-05-01 12:18 51.98671 -1.81885 3984 ft 119 kts 209°
2026-05-01 12:18 51.97994 -1.82568 3973 ft 110 kts 209°
2026-05-01 12:19 51.97345 -1.83223 3782 ft 110 kts 209°
2026-05-01 12:19 51.96691 -1.83875 3579 ft 110 kts 210°
2026-05-01 12:19 51.96036 -1.84513 3395 ft 111 kts 209°
2026-05-01 12:19 51.95371 -1.85162 3191 ft 112 kts 209°
2026-05-01 12:20 51.94695 -1.85826 2994 ft 116 kts 209°
2026-05-01 12:20 51.94006 -1.86500 2786 ft 114 kts 209°
2026-05-01 12:20 51.93329 -1.87162 2591 ft 114 kts 209°
2026-05-01 12:20 51.92635 -1.87841 2488 ft 118 kts 207°
2026-05-01 12:21 51.91925 -1.88502 2482 ft 118 kts 210°
2026-05-01 12:21 51.91365 -1.89404 2535 ft 116 kts 244°
2026-05-01 12:21 51.91233 -1.90721 2545 ft 120 kts 261°
2026-05-01 12:21 51.91158 -1.92130 2390 ft 131 kts 262°
2026-05-01 12:22 51.91078 -1.93581 2244 ft 127 kts 261°
2026-05-01 12:22 51.90999 -1.94965 2116 ft 124 kts 260°
2026-05-01 12:22 51.90896 -1.96343 1985 ft 123 kts 257°
2026-05-01 12:22 51.90800 -1.97685 1970 ft 117 kts 261°
2026-05-01 12:23 51.90727 -1.98980 1964 ft 114 kts 260°
2026-05-01 12:23 51.90643 -2.00252 1994 ft 114 kts 259°
2026-05-01 12:23 51.90504 -2.01514 1978 ft 115 kts 258°
2026-05-01 12:23 51.90398 -2.02790 1969 ft 109 kts 258°
2026-05-01 12:24 51.90278 -2.03883 1920 ft 94 kts 254°
2026-05-01 12:24 51.90181 -2.04906 1789 ft 91 kts 262°
2026-05-01 12:24 51.90131 -2.05901 1619 ft 93 kts 262°
2026-05-01 12:24 51.90076 -2.06917 1501 ft 91 kts 261°
2026-05-01 12:25 51.90022 -2.07936 1305 ft 93 kts 262°
2026-05-01 12:25 51.89861 -2.09982 1054 ft 92 kts 263°
2026-05-01 12:25 51.89774 -2.11039 874 ft 95 kts 264°
2026-05-01 12:26 51.89718 -2.12096 729 ft 95 kts 268°
2026-05-01 12:26 51.89584 -2.14123 748 ft 85 kts 268°
2026-05-01 12:26 51.89528 -2.15081 885 ft 85 kts 268°
2026-05-01 12:27 51.89469 -2.16050 979 ft 87 kts 266°
2026-05-01 12:27 51.89336 -2.18069 1083 ft 98 kts 266°
2026-05-01 12:28 51.89954 -2.19777 1158 ft 112 kts 349°
2026-05-01 12:28 51.90742 -2.19750 1165 ft 115 kts 22°
2026-05-01 12:28 51.91331 -2.17469 1102 ft 123 kts 89°
2026-05-01 12:29 51.91370 -2.16052 1073 ft 126 kts 94°
2026-05-01 12:29 51.91366 -2.14643 1121 ft 122 kts 96°
2026-05-01 12:29 51.90632 -2.12894 978 ft 94 kts 176°
2026-05-01 12:30 51.89570 -2.13810 637 ft 99 kts 264°
2026-05-01 12:30 51.89526 -2.14974 338 ft 104 kts 265°
2026-05-01 12:30 51.89455 -2.16062 114 ft 81 kts 264°
2026-05-01 12:31 51.89408 -2.16751 91 ft 47 kts 263°
2026-05-01 12:31 51.89378 -2.17181 90 ft 32 kts 263°
2026-05-01 12:31 51.89357 -2.17493 87 ft 22 kts 264°
2026-05-01 12:31 51.89315 -2.17542 88 ft 11 kts 135°
2026-05-01 12:32 51.89243 -2.17431 90 ft 17 kts 134°
2026-05-01 12:32 51.89032 -2.17179 89 ft 20 kts 146°
2026-05-01 12:32 51.88947 -2.17037 89 ft 11 kts 124°
2026-05-01 12:33 51.88906 -2.16933 90 ft 9 kts 117°
2026-05-01 12:33 51.88866 -2.16806 88 ft 17 kts 119°
2026-05-01 12:33 51.88865 -2.16619 90 ft 18 kts 74°
2026-05-01 12:33 51.88933 -2.16504 88 ft 11 kts
2026-05-01 12:34 51.88957 -2.16415 88 ft 7 kts 89°
2026-05-01 12:34 51.88928 -2.16385 88 ft 4 kts 17°
2026-05-01 12:34 51.88932 -2.16385 90 ft 0 kts 358°